Date String (YYYY-MM-DD hh:mm:ss) UTC,Instrument flags,Ambient pressure (hPa),Sample flow (lpm),Bypass flow (lpm),Sample temperature (°C),Ambient temperature (°C),ASC tube jacket temperature (°C),LED temperature (°C),Box temperature (°C),Sample RH (%),Span deviation,Mass concentration (μg/m³),Mass concentration (μg/m³),Mass concentration (μg/m³)
DateTimeUTC,F1_M11,P_M11,Q1_M11,Q2_M11,T1_M11,T2_M11,T3_M11,T4_M11,T5_M11,U1_M11,ZSPAN_M11,X0_M11,X2_M11,X1_M11
2022-09-21 16:00:00,,0833.9,4.98,0.00,31.0,29.3,00.0,39.8,32.8,24.0,0002.3,0017.57,0008.50,0006.64
2022-09-21 16:01:00,,0833.9,5.01,0.00,31.0,29.4,00.0,39.8,32.7,24.0,0002.4,0017.86,0008.49,0006.67
2022-09-21 16:02:00,,0833.9,4.99,0.00,31.0,29.4,00.0,39.8,32.7,24.0,0002.4,0017.72,0008.53,0006.69
2022-09-21 16:03:00,,0833.9,5.01,0.00,31.0,29.3,00.0,39.8,32.7,24.0,0002.9,0018.08,0008.54,0006.70
2022-09-21 16:04:00,,0834.0,4.99,0.00,30.9,29.4,00.0,39.8,32.6,24.0,0002.9,0018.11,0008.51,0006.70
2022-09-21 16:05:00,,0833.9,4.99,0.00,30.9,29.4,00.0,39.8,32.6,24.0,0002.8,0018.02,0008.52,0006.69
2022-09-21 16:06:00,,0834.0,5.00,0.00,30.9,29.4,00.0,39.8,32.7,24.1,0002.3,0018.09,0008.56,0006.69
2022-09-21 16:07:00,,0834.0,4.99,0.00,30.9,29.4,00.0,39.8,32.7,24.1,0002.1,0017.86,0008.52,0006.69
2022-09-21 16:08:00,,0834.0,5.01,0.00,30.9,29.5,00.0,39.8,32.7,24.3,0001.3,0017.71,0008.44,0006.69
2022-09-21 16:09:00,,0834.0,4.99,0.00,30.9,29.4,00.0,39.8,32.7,24.2,0001.4,0018.01,0008.37,0006.70
2022-09-21 16:10:00,,0834.0,5.00,0.00,30.9,29.4,00.0,39.8,32.6,24.1,0001.5,0018.29,0008.32,0006.72
2022-09-21 16:11:00,,0834.1,4.99,0.00,30.9,29.4,00.0,39.8,32.6,24.1,0001.4,0018.33,0008.31,0006.74
2022-09-21 16:12:00,,0834.1,5.00,0.00,30.9,29.1,00.0,39.8,32.6,24.1,0001.2,0017.76,0008.34,0006.74
2022-09-21 16:13:00,,0834.1,5.00,0.00,30.9,27.5,00.0,39.7,32.5,24.1,0001.2,0018.17,0008.38,0006.74
2022-09-21 16:14:00,,0834.1,4.99,0.00,30.8,26.5,00.0,39.6,32.4,24.3,0000.8,0018.14,0008.41,0006.75
2022-09-21 16:15:00,,0834.1,5.00,0.00,30.7,26.4,00.0,39.5,32.2,24.4,0000.7,0018.04,0008.45,0006.78
2022-09-21 16:16:00,,0834.1,5.00,0.00,30.6,26.8,00.0,39.5,31.9,24.7,0000.8,0018.53,0008.49,0006.81
2022-09-21 16:17:00,,0834.1,5.00,0.00,30.5,27.2,00.0,39.4,31.9,24.8,0000.8,0018.38,0008.50,0006.84
2022-09-21 16:18:00,,0834.1,5.00,0.00,30.4,27.5,00.0,39.4,32.0,24.8,0000.4,0017.76,0008.48,0006.87
2022-09-21 16:19:00,,0834.2,5.01,0.00,30.4,27.8,00.0,39.3,32.0,24.8,0000.6,0018.30,0008.53,0006.89
2022-09-21 16:20:00,,0834.2,5.00,0.00,30.4,28.1,00.0,39.3,32.0,25.0,0000.7,0018.94,0008.59,0006.90
2022-09-21 16:21:00,,0834.2,5.00,0.00,30.4,28.3,00.0,39.3,32.1,25.0,0000.4,0019.42,0008.68,0006.91
2022-09-21 16:22:00,,0834.3,4.99,0.00,30.4,28.4,00.0,39.3,32.1,25.0,-000.0,0019.57,0008.73,0006.91
2022-09-21 16:23:00,,0834.3,5.01,0.00,30.4,28.6,00.0,39.3,32.1,25.0,0000.1,0019.25,0008.74,0006.91
2022-09-21 16:24:00,,0834.3,4.99,0.00,30.4,28.7,00.0,39.2,32.1,25.1,-000.1,0019.17,0008.69,0006.90
2022-09-21 16:25:00,,0834.3,5.02,0.00,30.4,28.8,00.0,39.2,32.1,25.1,-000.6,0019.95,0008.65,0006.91
2022-09-21 16:26:00,,0834.3,4.99,0.00,30.4,28.9,00.0,39.2,32.2,25.1,-000.7,0019.81,0008.65,0006.92
2022-09-21 16:27:00,,0834.3,5.00,0.00,30.4,29.0,00.0,39.2,32.2,25.1,-000.5,0020.86,0008.64,0006.93
2022-09-21 16:28:00,,0834.3,5.00,0.00,30.4,29.1,00.0,39.2,32.3,25.1,-000.5,0021.76,0008.64,0006.94
2022-09-21 16:29:00,,0834.3,5.01,0.00,30.5,29.1,00.0,39.2,32.3,25.0,-000.2,0022.37,0008.71,0006.95
2022-09-21 16:30:00,,0834.4,4.99,0.00,30.5,29.1,00.0,39.2,32.3,25.0,-000.0,0023.95,0008.80,0006.99
2022-09-21 16:31:00,,0834.4,4.99,0.00,30.5,29.2,00.0,39.3,32.3,25.1,-000.2,0024.62,0008.78,0007.06
2022-09-21 16:32:00,,0834.4,5.00,0.00,30.5,29.2,00.0,39.3,32.3,25.0,-000.3,0024.49,0008.77,0007.14
2022-09-21 16:33:00,,0834.4,5.01,0.00,30.5,29.2,00.0,39.3,32.3,25.1,-000.3,0023.91,0008.75,0007.18
2022-09-21 16:34:00,,0834.3,5.00,0.00,30.5,29.3,00.0,39.3,32.3,25.1,-000.3,0023.99,0008.77,0007.23
2022-09-21 16:35:00,,0834.3,4.98,0.00,30.5,29.3,00.0,39.3,32.3,25.2,-000.2,0023.54,0008.81,0007.24
2022-09-21 16:36:00,,0834.3,5.00,0.00,30.5,29.2,00.0,39.3,32.4,25.1,0000.3,0022.70,0008.85,0007.26
2022-09-21 16:37:00,,0834.3,5.01,0.00,30.6,29.2,00.0,39.3,32.4,25.2,0000.3,0023.61,0008.86,0007.27
2022-09-21 16:38:00,,0834.3,4.99,0.00,30.6,29.2,00.0,39.3,32.4,25.2,0000.4,0022.76,0008.88,0007.29
2022-09-21 16:39:00,,0834.3,5.00,0.00,30.6,29.1,00.0,39.3,32.4,25.1,0000.5,0021.89,0008.88,0007.30
2022-09-21 16:40:00,,0834.3,4.99,0.00,30.6,29.1,00.0,39.3,32.4,24.9,0000.5,0021.99,0008.86,0007.31
2022-09-21 16:41:00,,0834.3,5.01,0.00,30.5,29.0,00.0,39.3,32.4,24.9,0000.3,0020.59,0008.85,0007.31
2022-09-21 16:42:00,,0834.4,5.00,0.00,30.5,29.0,00.0,39.3,32.4,24.9,0000.4,0019.67,0008.84,0007.29
2022-09-21 16:43:00,,0834.3,4.99,0.00,30.6,29.0,00.0,39.3,32.3,24.9,0000.3,0020.55,0008.83,0007.24
2022-09-21 16:44:00,,0834.4,5.01,0.00,30.5,29.0,00.0,39.3,32.4,24.8,0000.4,0020.98,0008.82,0007.22
2022-09-21 16:45:00,,0834.4,5.00,0.00,30.5,29.0,00.0,39.3,32.3,24.9,0000.5,0021.94,0008.79,0007.21
2022-09-21 16:46:00,,0834.4,5.00,0.00,30.5,29.0,00.0,39.3,32.3,24.8,0000.5,0023.38,0008.78,0007.23
2022-09-21 16:47:00,,0834.4,4.99,0.00,30.5,29.0,00.0,39.3,32.3,24.8,0000.1,0023.57,0008.75,0007.24
2022-09-21 16:48:00,,0834.4,5.00,0.00,30.6,29.1,00.0,39.3,32.4,24.8,0000.2,0022.37,0008.74,0007.27
2022-09-21 16:49:00,,0834.4,5.00,0.00,30.6,29.1,00.0,39.3,32.4,24.8,0000.2,0022.75,0008.72,0007.28
2022-09-21 16:50:00,,0834.5,5.00,0.00,30.6,29.2,00.0,39.4,32.4,24.8,0000.4,0023.23,0008.72,0007.30
2022-09-21 16:51:00,,0834.4,5.00,0.00,30.6,29.2,00.0,39.4,32.4,24.8,0000.5,0022.98,0008.72,0007.31
2022-09-21 16:52:00,,0834.4,5.01,0.00,30.6,29.2,00.0,39.4,32.4,24.8,0000.6,0023.26,0008.66,0007.30
2022-09-21 16:53:00,,0834.4,5.01,0.00,30.6,29.3,00.0,39.4,32.5,24.8,0000.8,0023.13,0008.67,0007.29
2022-09-21 16:54:00,,0834.5,4.99,0.00,30.6,29.3,00.0,39.4,32.5,24.8,0001.0,0021.79,0008.72,0007.30
2022-09-21 16:55:00,,0834.5,5.01,0.00,30.6,29.3,00.0,39.4,32.5,24.8,0001.1,0021.47,0008.72,0007.31
2022-09-21 16:56:00,,0834.5,4.99,0.00,30.7,29.3,00.0,39.4,32.5,24.7,0001.1,0020.48,0008.74,0007.32
2022-09-21 16:57:00,,0834.5,5.01,0.00,30.7,29.4,00.0,39.4,32.5,24.7,0001.0,0019.69,0008.77,0007.32
2022-09-21 16:58:00,,0834.5,4.99,0.00,30.7,29.4,00.0,39.4,32.5,24.6,0001.2,0019.74,0008.80,0007.31
2022-09-21 16:59:00,,0834.5,5.00,0.00,30.7,29.4,00.0,39.4,32.5,24.5,0001.1,0020.01,0008.82,0007.31
